WJA2564 CYYZ-MZBZ

Flight info

Callsign WJA2564
Flight time 3h 59m
Altitude 34000
Route BETES3 AIRRA DCT GEFFS DCT CMIKE/N0452F360 DCT CIGAR M219 SNAKR Y240 NAVVL L465 SHARQ UM463 WALKY DCT EMOSA UB764 BUKKY BUKKY1A
Aircraft B738/M-SDE2E3FGHIRWXY/LB1

Departure

Time 2026-05-04 12:40
Airport Toronto Pearson International Airport (CYYZ)

Arrival

Time 2026-05-04 16:40
Airport Philip S. W. Goldson International Airport (MZBZ)
Time Latitude Longitude Altitude Speed Heading
2026-05-04 12:08 43.68401 -79.62074 567 ft 0 kts 107°
2026-05-04 12:26 43.68404 -79.62088 569 ft 3 kts 107°
2026-05-04 12:26 43.68410 -79.62115 568 ft 3 kts 107°
2026-05-04 12:26 43.68415 -79.62137 570 ft 3 kts 100°
2026-05-04 12:27 43.68416 -79.62163 566 ft 3 kts 69°
2026-05-04 12:27 43.68406 -79.62183 562 ft 3 kts 28°
2026-05-04 12:27 43.68388 -79.62193 565 ft 2 kts 15°
2026-05-04 12:27 43.68379 -79.62196 565 ft 1 kts 16°
2026-05-04 12:28 43.68378 -79.62196 565 ft 0 kts 16°
2026-05-04 12:30 43.68381 -79.62195 565 ft 1 kts 16°
2026-05-04 12:30 43.68403 -79.62187 570 ft 5 kts 16°
2026-05-04 12:30 43.68438 -79.62174 569 ft 5 kts
2026-05-04 12:31 43.68449 -79.62213 568 ft 6 kts 250°
2026-05-04 12:31 43.68416 -79.62267 566 ft 8 kts 226°
2026-05-04 12:31 43.68379 -79.62322 563 ft 8 kts 226°
2026-05-04 12:31 43.68348 -79.62366 562 ft 0 kts 225°
2026-05-04 12:32 43.68357 -79.62354 566 ft 4 kts 225°
2026-05-04 12:32 43.68368 -79.62338 563 ft 0 kts 225°
2026-05-04 12:33 43.68365 -79.62343 560 ft 4 kts 225°
2026-05-04 12:33 43.68321 -79.62381 562 ft 11 kts 190°
2026-05-04 12:34 43.68261 -79.62440 561 ft 10 kts 261°
2026-05-04 12:34 43.68304 -79.62520 561 ft 11 kts 316°
2026-05-04 12:34 43.68338 -79.62566 561 ft 0 kts 316°
2026-05-04 12:34 43.68341 -79.62570 561 ft 3 kts 316°
2026-05-04 12:35 43.68374 -79.62613 561 ft 10 kts 316°
2026-05-04 12:35 43.68437 -79.62695 561 ft 14 kts 316°
2026-05-04 12:35 43.68516 -79.62798 561 ft 17 kts 317°
2026-05-04 12:35 43.68607 -79.62916 560 ft 18 kts 317°
2026-05-04 12:36 43.68697 -79.63033 560 ft 17 kts 316°
2026-05-04 12:36 43.68783 -79.63145 561 ft 17 kts 317°
2026-05-04 12:36 43.68866 -79.63254 561 ft 16 kts 316°
2026-05-04 12:36 43.68948 -79.63360 563 ft 17 kts 316°
2026-05-04 12:37 43.69036 -79.63476 569 ft 17 kts 316°
2026-05-04 12:37 43.69115 -79.63528 566 ft 13 kts 24°
2026-05-04 12:37 43.69179 -79.63446 567 ft 12 kts 39°
2026-05-04 12:37 43.69261 -79.63423 565 ft 12 kts
2026-05-04 12:38 43.69342 -79.63421 566 ft 9 kts 355°
2026-05-04 12:38 43.69367 -79.63436 564 ft 0 kts 325°
2026-05-04 12:38 43.69371 -79.63440 561 ft 1 kts 321°
2026-05-04 12:38 43.69391 -79.63465 569 ft 7 kts 317°
2026-05-04 12:39 43.69411 -79.63511 561 ft 6 kts 254°
2026-05-04 12:39 43.69403 -79.63526 559 ft 0 kts 226°
2026-05-04 12:39 43.69398 -79.63533 559 ft 6 kts 226°
2026-05-04 12:40 43.69212 -79.63801 564 ft 72 kts 226°
2026-05-04 12:40 43.68726 -79.64506 563 ft 130 kts 226°
2026-05-04 12:40 43.68006 -79.65553 772 ft 159 kts 227°
2026-05-04 12:40 43.67265 -79.66699 1540 ft 162 kts 233°
2026-05-04 12:41 43.66633 -79.67965 2413 ft 157 kts 238°
2026-05-04 12:41 43.66013 -79.69241 2971 ft 172 kts 239°
2026-05-04 12:41 43.65239 -79.70666 3171 ft 197 kts 235°
2026-05-04 12:41 43.64342 -79.72241 3381 ft 218 kts 235°
2026-05-04 12:42 43.63392 -79.73922 3798 ft 231 kts 235°
2026-05-04 12:42 43.62124 -79.75428 4154 ft 254 kts 205°
2026-05-04 12:42 43.60332 -79.75603 4917 ft 269 kts 170°
2026-05-04 12:42 43.58535 -79.74836 5746 ft 272 kts 167°
2026-05-04 12:43 43.56719 -79.74033 6408 ft 278 kts 167°
2026-05-04 12:43 43.54865 -79.73224 7151 ft 280 kts 167°
2026-05-04 12:43 43.53001 -79.72425 7882 ft 283 kts 168°
2026-05-04 12:43 43.51104 -79.71626 8597 ft 287 kts 168°
2026-05-04 12:44 43.49173 -79.70824 9307 ft 291 kts 169°
2026-05-04 12:44 43.47221 -79.70020 9994 ft 295 kts 169°
2026-05-04 12:44 43.45221 -79.69202 10430 ft 309 kts 169°
2026-05-04 12:44 43.43077 -79.68406 10586 ft 328 kts 176°
2026-05-04 12:45 43.40759 -79.68373 10768 ft 339 kts 194°
2026-05-04 12:45 43.38496 -79.69326 11226 ft 342 kts 206°
2026-05-04 12:45 43.36279 -79.70565 11836 ft 347 kts 207°
2026-05-04 12:45 43.34035 -79.71828 12498 ft 351 kts 207°
2026-05-04 12:46 43.31753 -79.73087 13134 ft 356 kts 206°
2026-05-04 12:46 43.29467 -79.74325 13729 ft 361 kts 206°
2026-05-04 12:46 43.27114 -79.75587 14310 ft 364 kts 206°
2026-05-04 12:46 43.24725 -79.76792 14908 ft 370 kts 202°
2026-05-04 12:47 43.22223 -79.77743 15494 ft 375 kts 199°
2026-05-04 12:47 43.19680 -79.78580 16074 ft 379 kts 198°
2026-05-04 12:47 43.17081 -79.79404 16626 ft 383 kts 198°
2026-05-04 12:47 43.14472 -79.80240 17174 ft 387 kts 198°
2026-05-04 12:48 43.11841 -79.81098 17740 ft 391 kts 198°
2026-05-04 12:48 43.09181 -79.81980 18274 ft 394 kts 198°
2026-05-04 12:48 43.06503 -79.82878 18747 ft 398 kts 198°
2026-05-04 12:48 43.03805 -79.83787 19226 ft 401 kts 199°
2026-05-04 12:49 43.01085 -79.84705 19702 ft 404 kts 199°
2026-05-04 12:49 42.98342 -79.85631 20174 ft 408 kts 199°
2026-05-04 12:49 42.95574 -79.86564 20630 ft 411 kts 199°
2026-05-04 12:49 42.92783 -79.87503 21085 ft 414 kts 199°
2026-05-04 12:50 42.90010 -79.88435 21540 ft 417 kts 199°
2026-05-04 12:50 42.87178 -79.89387 21994 ft 421 kts 199°
2026-05-04 12:50 42.84323 -79.90345 22431 ft 424 kts 199°
2026-05-04 12:50 42.81434 -79.91252 22864 ft 428 kts 197°
2026-05-04 12:51 42.78497 -79.92039 23288 ft 433 kts 196°
2026-05-04 12:51 42.75525 -79.92776 23648 ft 436 kts 195°
2026-05-04 12:51 42.72530 -79.93505 24027 ft 438 kts 195°
2026-05-04 12:51 42.70501 -79.94001 24280 ft 439 kts 195°
2026-05-04 12:52 42.67529 -79.94736 24633 ft 441 kts 196°
2026-05-04 12:52 42.64461 -79.95505 24982 ft 443 kts 196°
2026-05-04 12:52 42.61459 -79.96264 25319 ft 446 kts 196°
2026-05-04 12:52 42.58396 -79.97042 25664 ft 448 kts 196°
2026-05-04 12:53 42.55325 -79.97822 25992 ft 450 kts 196°
2026-05-04 12:53 42.52231 -79.98608 26342 ft 451 kts 196°
2026-05-04 12:53 42.49137 -79.99394 26657 ft 454 kts 196°
2026-05-04 12:53 42.46030 -80.00181 26963 ft 456 kts 195°
2026-05-04 12:54 42.42900 -80.00973 27275 ft 458 kts 195°
2026-05-04 12:54 42.39756 -80.01768 27583 ft 460 kts 195°
2026-05-04 12:54 42.36602 -80.02564 27880 ft 462 kts 195°
2026-05-04 12:54 42.33436 -80.03362 28174 ft 465 kts 195°
2026-05-04 12:55 42.30240 -80.04167 28454 ft 467 kts 195°
2026-05-04 12:55 42.27087 -80.04961 28734 ft 468 kts 195°
2026-05-04 12:55 42.23855 -80.05632 29001 ft 474 kts 189°
2026-05-04 12:55 42.20532 -80.05777 29325 ft 478 kts 185°
2026-05-04 12:56 42.17212 -80.05769 29748 ft 476 kts 184°
2026-05-04 12:56 42.13906 -80.05727 30172 ft 474 kts 184°
2026-05-04 12:56 42.10615 -80.05690 30502 ft 473 kts 184°
2026-05-04 12:56 42.07308 -80.05674 30757 ft 474 kts 184°
2026-05-04 12:57 42.04008 -80.05677 31019 ft 475 kts 185°
2026-05-04 12:57 42.00702 -80.05694 31329 ft 474 kts 185°
2026-05-04 12:57 41.97407 -80.05718 31624 ft 473 kts 185°
2026-05-04 12:57 41.94111 -80.05745 31903 ft 473 kts 185°
2026-05-04 12:58 41.90823 -80.05774 32173 ft 473 kts 185°
2026-05-04 12:58 41.87534 -80.05802 32443 ft 473 kts 185°
2026-05-04 12:58 41.84238 -80.05829 32733 ft 472 kts 185°
2026-05-04 12:58 41.80949 -80.05856 33010 ft 472 kts 185°
2026-05-04 12:59 41.77665 -80.05881 33320 ft 471 kts 185°
2026-05-04 12:59 41.74433 -80.05906 33576 ft 471 kts 185°
2026-05-04 12:59 41.71154 -80.05932 33826 ft 471 kts 185°
2026-05-04 13:00 41.64566 -80.05985 33849 ft 475 kts 185°
2026-05-04 13:00 41.57959 -80.06035 33881 ft 472 kts 185°
2026-05-04 13:01 41.51418 -80.06083 33891 ft 468 kts 185°
2026-05-04 13:01 41.44907 -80.06134 33907 ft 468 kts 185°
2026-05-04 13:02 41.38404 -80.06186 33916 ft 467 kts 185°
2026-05-04 13:02 41.31898 -80.06236 33905 ft 467 kts 185°
2026-05-04 13:03 41.25437 -80.06286 33916 ft 467 kts 185°
2026-05-04 13:03 41.18924 -80.06336 33921 ft 468 kts 185°
2026-05-04 13:04 41.12411 -80.06397 33899 ft 468 kts 186°
2026-05-04 13:04 41.06096 -80.07845 33942 ft 457 kts 201°
2026-05-04 13:05 40.99981 -80.10191 33933 ft 459 kts 201°
2026-05-04 13:05 40.93836 -80.12531 33933 ft 460 kts 201°
2026-05-04 13:06 40.87705 -80.14812 33939 ft 460 kts 201°
2026-05-04 13:06 40.81534 -80.17080 33932 ft 460 kts 200°
2026-05-04 13:07 40.75363 -80.19340 33938 ft 460 kts 200°
2026-05-04 13:07 40.69194 -80.21595 33928 ft 459 kts 201°
2026-05-04 13:08 40.63040 -80.23842 33924 ft 459 kts 200°
2026-05-04 13:08 40.56893 -80.26083 33936 ft 458 kts 200°
2026-05-04 13:09 40.50766 -80.28312 33934 ft 457 kts 200°
2026-05-04 13:09 40.44634 -80.30539 33937 ft 455 kts 201°
2026-05-04 13:10 40.38531 -80.32752 33927 ft 455 kts 201°
2026-05-04 13:10 40.32440 -80.34955 33933 ft 454 kts 201°
2026-05-04 13:11 40.26363 -80.37150 33973 ft 453 kts 201°
2026-05-04 13:11 40.20331 -80.39325 33978 ft 452 kts 201°
2026-05-04 13:12 40.14265 -80.41507 33985 ft 452 kts 201°
2026-05-04 13:12 40.08200 -80.43686 33975 ft 452 kts 201°
2026-05-04 13:13 40.02138 -80.45858 33950 ft 451 kts 201°
2026-05-04 13:13 39.96083 -80.48025 33943 ft 451 kts 201°
2026-05-04 13:14 39.90027 -80.50188 33945 ft 451 kts 201°
2026-05-04 13:14 39.83980 -80.52344 33936 ft 451 kts 201°
2026-05-04 13:15 39.77930 -80.54496 33943 ft 450 kts 201°
2026-05-04 13:15 39.71888 -80.56643 33960 ft 450 kts 201°
2026-05-04 13:16 39.65842 -80.58787 33950 ft 450 kts 201°
2026-05-04 13:16 39.59790 -80.60929 33958 ft 450 kts 202°
2026-05-04 13:17 39.53744 -80.63064 33955 ft 450 kts 202°
2026-05-04 13:17 39.47697 -80.65196 33964 ft 450 kts 202°
2026-05-04 13:18 39.41662 -80.67320 33941 ft 450 kts 202°
2026-05-04 13:18 39.35621 -80.69443 33969 ft 449 kts 202°
2026-05-04 13:19 39.29583 -80.71562 33977 ft 449 kts 202°
2026-05-04 13:19 39.23581 -80.73663 33970 ft 450 kts 202°
2026-05-04 13:20 39.17534 -80.75777 33971 ft 449 kts 202°
2026-05-04 13:20 39.11500 -80.77882 33974 ft 449 kts 202°
2026-05-04 13:21 39.05464 -80.79986 33974 ft 449 kts 202°
2026-05-04 13:21 38.99423 -80.82071 33976 ft 450 kts 202°
2026-05-04 13:22 38.93345 -80.84045 33970 ft 450 kts 201°
2026-05-04 13:22 38.87256 -80.85984 33989 ft 450 kts 201°
2026-05-04 13:23 38.81217 -80.87915 33986 ft 450 kts 201°
2026-05-04 13:23 38.75106 -80.89877 33966 ft 450 kts 201°
2026-05-04 13:24 38.69070 -80.91815 33971 ft 450 kts 201°
2026-05-04 13:24 38.62997 -80.93762 33998 ft 450 kts 201°
2026-05-04 13:25 38.53870 -80.96683 33976 ft 451 kts 201°
2026-05-04 13:25 38.47768 -80.98630 33992 ft 452 kts 201°
2026-05-04 13:26 38.41661 -81.00575 34001 ft 452 kts 201°
2026-05-04 13:26 38.35555 -81.02516 34006 ft 453 kts 201°
2026-05-04 13:27 38.29471 -81.04448 33983 ft 453 kts 202°
2026-05-04 13:27 38.23348 -81.06387 33999 ft 452 kts 202°
2026-05-04 13:28 38.17242 -81.08318 34005 ft 451 kts 202°
2026-05-04 13:28 38.11153 -81.10241 34010 ft 451 kts 202°
2026-05-04 13:29 38.05073 -81.12158 34003 ft 450 kts 202°
2026-05-04 13:29 37.98988 -81.14073 34014 ft 450 kts 202°
2026-05-04 13:30 37.92959 -81.15968 34069 ft 449 kts 202°
2026-05-04 13:30 37.86889 -81.17872 34083 ft 449 kts 202°
2026-05-04 13:31 37.80826 -81.19770 34075 ft 448 kts 202°
2026-05-04 13:31 37.74766 -81.21665 34084 ft 448 kts 202°
2026-05-04 13:32 37.68707 -81.23556 34075 ft 449 kts 202°
2026-05-04 13:32 37.62636 -81.25449 34016 ft 450 kts 202°
2026-05-04 13:33 37.56552 -81.27341 34046 ft 450 kts 203°
2026-05-04 13:33 37.50494 -81.29223 34063 ft 451 kts 203°
2026-05-04 13:34 37.44398 -81.31113 34087 ft 452 kts 203°
2026-05-04 13:34 37.38278 -81.33007 34079 ft 452 kts 203°
2026-05-04 13:35 37.29119 -81.35833 34101 ft 451 kts 203°
2026-05-04 13:36 37.23025 -81.37710 34035 ft 451 kts 203°
2026-05-04 13:36 37.16938 -81.39583 34077 ft 449 kts 203°
2026-05-04 13:37 37.10876 -81.41443 34097 ft 447 kts 204°
2026-05-04 13:37 37.04832 -81.43297 34107 ft 447 kts 204°
2026-05-04 13:38 36.98837 -81.45133 34136 ft 445 kts 204°
2026-05-04 13:38 36.92821 -81.46973 34135 ft 444 kts 204°
2026-05-04 13:39 36.86823 -81.48802 34139 ft 443 kts 204°
2026-05-04 13:39 36.81805 -81.50331 34132 ft 442 kts 204°
2026-05-04 13:40 36.75872 -81.52137 34104 ft 442 kts 204°
2026-05-04 13:40 36.69899 -81.53952 34091 ft 441 kts 204°
2026-05-04 13:41 36.63938 -81.55760 34062 ft 441 kts 203°
2026-05-04 13:41 36.57977 -81.57565 34044 ft 440 kts 203°
2026-05-04 13:42 36.49036 -81.60267 34039 ft 440 kts 203°
2026-05-04 13:42 36.43082 -81.62063 34033 ft 441 kts 203°
2026-05-04 13:43 36.37116 -81.63859 34052 ft 440 kts 203°
2026-05-04 13:43 36.31194 -81.65641 34016 ft 441 kts 203°
2026-05-04 13:44 36.25232 -81.67431 34038 ft 441 kts 202°
2026-05-04 13:44 36.19251 -81.69223 34034 ft 442 kts 202°
2026-05-04 13:45 36.13277 -81.71011 34048 ft 442 kts 202°
2026-05-04 13:45 36.07292 -81.72799 34051 ft 442 kts 202°
2026-05-04 13:46 36.01340 -81.74575 34053 ft 443 kts 202°
2026-05-04 13:46 35.95342 -81.76362 34029 ft 444 kts 202°
2026-05-04 13:47 35.89337 -81.78147 34060 ft 444 kts 202°
2026-05-04 13:47 35.83312 -81.79936 34123 ft 445 kts 202°
2026-05-04 13:48 35.77296 -81.81719 34131 ft 444 kts 202°
2026-05-04 13:48 35.71282 -81.83498 34117 ft 444 kts 202°
2026-05-04 13:49 35.65305 -81.85265 34107 ft 444 kts 202°
2026-05-04 13:49 35.59293 -81.87038 34113 ft 443 kts 202°
2026-05-04 13:50 35.53288 -81.88807 34132 ft 443 kts 202°
2026-05-04 13:50 35.47296 -81.90570 34108 ft 442 kts 202°
2026-05-04 13:51 35.41329 -81.92322 34127 ft 441 kts 202°
2026-05-04 13:51 35.35365 -81.94071 34140 ft 440 kts 202°
2026-05-04 13:52 35.26430 -81.96687 34121 ft 440 kts 202°
2026-05-04 13:53 35.20517 -81.98414 34086 ft 439 kts 201°
2026-05-04 13:53 35.14586 -82.00144 34103 ft 438 kts 201°
2026-05-04 13:54 35.05680 -82.02739 34111 ft 439 kts 201°
2026-05-04 13:55 34.96736 -82.05338 34111 ft 441 kts 201°
2026-05-04 13:55 34.87777 -82.07935 34126 ft 442 kts 201°
2026-05-04 13:56 34.81786 -82.09668 34115 ft 442 kts 201°
2026-05-04 13:57 34.72797 -82.12264 34080 ft 443 kts 201°
2026-05-04 13:58 34.60852 -82.15703 34127 ft 442 kts 201°
2026-05-04 13:58 34.51870 -82.18284 34124 ft 442 kts 201°
2026-05-04 13:59 34.45893 -82.19997 34115 ft 441 kts 201°
2026-05-04 14:00 34.36949 -82.22557 34132 ft 440 kts 201°
2026-05-04 14:00 34.28018 -82.25108 34138 ft 439 kts 201°
2026-05-04 14:01 34.22109 -82.26793 34114 ft 439 kts 200°
2026-05-04 14:02 34.13164 -82.29339 34142 ft 439 kts 200°
2026-05-04 14:02 34.07252 -82.31019 34144 ft 439 kts 200°
2026-05-04 14:03 34.01304 -82.32706 34139 ft 440 kts 200°
2026-05-04 14:03 33.95333 -82.34398 34118 ft 440 kts 200°
2026-05-04 14:04 33.86377 -82.36929 34134 ft 440 kts 200°
2026-05-04 14:04 33.80442 -82.38604 34137 ft 441 kts 200°
2026-05-04 14:05 33.71481 -82.41129 34108 ft 441 kts 200°
2026-05-04 14:06 33.65511 -82.42807 34127 ft 440 kts 200°
2026-05-04 14:06 33.59559 -82.44478 34145 ft 439 kts 200°
2026-05-04 14:07 33.53601 -82.46149 34143 ft 439 kts 200°
2026-05-04 14:07 33.47655 -82.47814 34141 ft 439 kts 200°
2026-05-04 14:08 33.41714 -82.49475 34132 ft 438 kts 200°
2026-05-04 14:08 33.35788 -82.51130 34175 ft 437 kts 200°
2026-05-04 14:09 33.26912 -82.53604 34163 ft 436 kts 200°
2026-05-04 14:10 33.18041 -82.56072 34144 ft 436 kts 200°
2026-05-04 14:10 33.12165 -82.57704 34146 ft 436 kts 200°
2026-05-04 14:11 33.06247 -82.59345 34138 ft 436 kts 200°
2026-05-04 14:11 32.97387 -82.61798 34138 ft 436 kts 200°
2026-05-04 14:12 32.91476 -82.63431 34130 ft 435 kts 199°
2026-05-04 14:13 32.82626 -82.65873 34146 ft 435 kts 199°
2026-05-04 14:13 32.76723 -82.67499 34147 ft 435 kts 199°
2026-05-04 14:14 32.70824 -82.69122 34152 ft 435 kts 199°
2026-05-04 14:14 32.62002 -82.71543 34151 ft 435 kts 199°
2026-05-04 14:15 32.50227 -82.74770 34157 ft 435 kts 199°
2026-05-04 14:16 32.41362 -82.77193 34155 ft 436 kts 199°
2026-05-04 14:17 32.32486 -82.79613 34153 ft 436 kts 200°
2026-05-04 14:18 32.23612 -82.82029 34163 ft 437 kts 200°
2026-05-04 14:19 32.11779 -82.85242 34152 ft 438 kts 200°
2026-05-04 14:19 32.05825 -82.86856 34167 ft 439 kts 200°
2026-05-04 14:20 31.99870 -82.88468 34166 ft 440 kts 200°
2026-05-04 14:20 31.93895 -82.90083 34164 ft 441 kts 200°
2026-05-04 14:21 31.84914 -82.92506 34139 ft 441 kts 201°
2026-05-04 14:21 31.78938 -82.94137 34147 ft 440 kts 203°
2026-05-04 14:22 31.73233 -82.96499 34158 ft 433 kts 209°
2026-05-04 14:22 31.67621 -82.99107 34156 ft 434 kts 209°
2026-05-04 14:23 31.59181 -83.02971 34139 ft 435 kts 210°
2026-05-04 14:24 31.53557 -83.05495 34157 ft 435 kts 210°
2026-05-04 14:24 31.47888 -83.08025 34170 ft 436 kts 210°
2026-05-04 14:25 31.42209 -83.10555 34163 ft 436 kts 209°
2026-05-04 14:25 31.33694 -83.14343 34121 ft 437 kts 210°
2026-05-04 14:26 31.29001 -83.16483 34123 ft 434 kts 211°
2026-05-04 14:26 31.23331 -83.19016 34139 ft 436 kts 211°
2026-05-04 14:27 31.16718 -83.21897 34139 ft 436 kts 211°
2026-05-04 14:27 31.11981 -83.23978 34144 ft 437 kts 211°
2026-05-04 14:28 31.06298 -83.26485 34094 ft 437 kts 211°
2026-05-04 14:28 31.00619 -83.28992 34129 ft 436 kts 211°
2026-05-04 14:29 30.89260 -83.34000 34160 ft 436 kts 211°
2026-05-04 14:30 30.83580 -83.36498 34157 ft 436 kts 211°
2026-05-04 14:31 30.75093 -83.40225 34157 ft 435 kts 211°
2026-05-04 14:32 30.63762 -83.45190 34171 ft 435 kts 211°
2026-05-04 14:32 30.58108 -83.47664 34164 ft 434 kts 211°
2026-05-04 14:33 30.52445 -83.50138 34162 ft 434 kts 211°
2026-05-04 14:33 30.46793 -83.52604 34169 ft 434 kts 211°
2026-05-04 14:34 30.41173 -83.55053 34171 ft 433 kts 211°
2026-05-04 14:34 30.35534 -83.57507 34160 ft 433 kts 211°
2026-05-04 14:35 30.29895 -83.59958 34160 ft 432 kts 211°
2026-05-04 14:35 30.24265 -83.62402 34124 ft 432 kts 211°
2026-05-04 14:36 30.18652 -83.64836 34139 ft 430 kts 210°
2026-05-04 14:36 30.13048 -83.67263 34149 ft 430 kts 210°
2026-05-04 14:37 30.07452 -83.69684 34148 ft 429 kts 210°
2026-05-04 14:37 30.01853 -83.72104 34149 ft 429 kts 210°
2026-05-04 14:38 29.96288 -83.74505 34115 ft 429 kts 210°
2026-05-04 14:38 29.90694 -83.76916 34140 ft 429 kts 210°
2026-05-04 14:39 29.85100 -83.79325 34151 ft 429 kts 210°
2026-05-04 14:39 29.79502 -83.81732 34149 ft 430 kts 210°
2026-05-04 14:40 29.71095 -83.85342 34151 ft 430 kts 210°
2026-05-04 14:40 29.65479 -83.87749 34140 ft 430 kts 210°
2026-05-04 14:41 29.59865 -83.90153 34146 ft 430 kts 210°
2026-05-04 14:42 29.48621 -83.94960 34149 ft 432 kts 210°
2026-05-04 14:42 29.42989 -83.97363 34153 ft 432 kts 210°
2026-05-04 14:43 29.37347 -83.99767 34143 ft 432 kts 210°
2026-05-04 14:43 29.31716 -84.02164 34143 ft 432 kts 210°
2026-05-04 14:44 29.26077 -84.04561 34149 ft 433 kts 210°
2026-05-04 14:44 29.20462 -84.06946 34138 ft 433 kts 210°
2026-05-04 14:45 29.14810 -84.09343 34142 ft 433 kts 210°
2026-05-04 14:45 29.09159 -84.11737 34128 ft 433 kts 210°
2026-05-04 14:46 29.03505 -84.14129 34132 ft 433 kts 210°
2026-05-04 14:46 28.97849 -84.16520 34141 ft 433 kts 210°
2026-05-04 14:47 28.92193 -84.18908 34144 ft 434 kts 210°
2026-05-04 14:47 28.86529 -84.21296 34136 ft 434 kts 210°
2026-05-04 14:48 28.80863 -84.23682 34111 ft 433 kts 210°
2026-05-04 14:48 28.75208 -84.26061 34125 ft 433 kts 210°
2026-05-04 14:49 28.69577 -84.28428 34138 ft 434 kts 210°
2026-05-04 14:49 28.63905 -84.30809 34128 ft 434 kts 210°
2026-05-04 14:50 28.58231 -84.33188 34132 ft 435 kts 210°
2026-05-04 14:50 28.52550 -84.35567 34100 ft 435 kts 210°
2026-05-04 14:51 28.46865 -84.37944 34123 ft 435 kts 210°
2026-05-04 14:51 28.41188 -84.40316 34127 ft 435 kts 210°
2026-05-04 14:52 28.35496 -84.42692 34123 ft 436 kts 210°
2026-05-04 14:52 28.29803 -84.45065 34123 ft 436 kts 210°
2026-05-04 14:53 28.24143 -84.47422 34094 ft 436 kts 210°
2026-05-04 14:53 28.18453 -84.49788 34108 ft 436 kts 210°
2026-05-04 14:54 28.12761 -84.52152 34121 ft 436 kts 210°
2026-05-04 14:54 28.07059 -84.54519 34117 ft 436 kts 210°
2026-05-04 14:55 28.01352 -84.56884 34118 ft 436 kts 210°
2026-05-04 14:55 27.95646 -84.59247 34072 ft 437 kts 209°
2026-05-04 14:56 27.89944 -84.61604 34106 ft 436 kts 209°
2026-05-04 14:56 27.84242 -84.63960 34117 ft 436 kts 209°
2026-05-04 14:57 27.78568 -84.66302 34115 ft 437 kts 209°
2026-05-04 14:57 27.72845 -84.68662 34117 ft 438 kts 209°
2026-05-04 14:58 27.67110 -84.71023 34108 ft 439 kts 209°
2026-05-04 14:58 27.61378 -84.73380 34107 ft 439 kts 209°
2026-05-04 14:59 27.55635 -84.75740 34108 ft 439 kts 209°
2026-05-04 15:00 27.47019 -84.79277 34105 ft 439 kts 209°
2026-05-04 15:00 27.41286 -84.81640 34109 ft 438 kts 209°
2026-05-04 15:01 27.32741 -84.85162 34093 ft 437 kts 208°
2026-05-04 15:01 27.27033 -84.87511 34106 ft 436 kts 208°
2026-05-04 15:02 27.21324 -84.89858 34097 ft 436 kts 208°
2026-05-04 15:02 27.15619 -84.92201 34098 ft 436 kts 208°
2026-05-04 15:03 27.09915 -84.94540 34104 ft 436 kts 208°
2026-05-04 15:03 27.04223 -84.96871 34097 ft 435 kts 208°
2026-05-04 15:04 26.98530 -84.99201 34098 ft 435 kts 208°
2026-05-04 15:04 26.92843 -85.01526 34101 ft 435 kts 208°
2026-05-04 15:05 26.87155 -85.03849 34102 ft 435 kts 208°
2026-05-04 15:05 26.81463 -85.06171 34100 ft 435 kts 208°
2026-05-04 15:06 26.75809 -85.08475 34089 ft 435 kts 208°
2026-05-04 15:07 26.67281 -85.11945 34098 ft 435 kts 208°
2026-05-04 15:07 26.61589 -85.14258 34104 ft 435 kts 208°
2026-05-04 15:08 26.55896 -85.16570 34104 ft 435 kts 208°
2026-05-04 15:08 26.50204 -85.18878 34100 ft 435 kts 208°
2026-05-04 15:09 26.44514 -85.21184 34102 ft 434 kts 207°
2026-05-04 15:09 26.38840 -85.23414 34087 ft 439 kts 203°
2026-05-04 15:10 26.32706 -85.24411 34105 ft 450 kts 192°
2026-05-04 15:10 26.29577 -85.24697 34096 ft 451 kts 192°
2026-05-04 15:11 26.20200 -85.25598 34095 ft 450 kts 193°
2026-05-04 15:11 26.13958 -85.26250 34089 ft 450 kts 193°
2026-05-04 15:12 26.07724 -85.26906 34089 ft 450 kts 193°
2026-05-04 15:12 26.01526 -85.27554 34100 ft 450 kts 193°
2026-05-04 15:13 25.95279 -85.28201 34095 ft 451 kts 193°
2026-05-04 15:13 25.89033 -85.28846 34092 ft 451 kts 193°
2026-05-04 15:14 25.83834 -85.29382 34083 ft 451 kts 193°
2026-05-04 15:14 25.77586 -85.30027 34094 ft 451 kts 193°
2026-05-04 15:15 25.71335 -85.30672 34100 ft 451 kts 193°
2026-05-04 15:15 25.65073 -85.31318 34096 ft 452 kts 193°
2026-05-04 15:16 25.55655 -85.32287 34051 ft 452 kts 193°
2026-05-04 15:17 25.46268 -85.33252 34097 ft 452 kts 193°
2026-05-04 15:17 25.36870 -85.34254 34085 ft 449 kts 197°
2026-05-04 15:18 25.31064 -85.36312 34085 ft 431 kts 215°
2026-05-04 15:19 25.23387 -85.41259 34074 ft 427 kts 217°
2026-05-04 15:19 25.15639 -85.46187 34089 ft 429 kts 216°
2026-05-04 15:20 25.10218 -85.49058 34089 ft 441 kts 203°
2026-05-04 15:20 25.04069 -85.50136 34087 ft 457 kts 187°
2026-05-04 15:21 24.97687 -85.50108 34088 ft 460 kts 186°
2026-05-04 15:22 24.88082 -85.50010 34081 ft 460 kts 186°
2026-05-04 15:22 24.78516 -85.49994 34089 ft 460 kts 187°
2026-05-04 15:23 24.72104 -85.49997 34087 ft 461 kts 187°
2026-05-04 15:23 24.65699 -85.49999 34086 ft 461 kts 187°
2026-05-04 15:24 24.52864 -85.49999 34081 ft 460 kts 187°
2026-05-04 15:25 24.46457 -85.49999 34078 ft 460 kts 187°
2026-05-04 15:26 24.36908 -85.49999 34083 ft 459 kts 187°
2026-05-04 15:26 24.27334 -85.49999 34074 ft 458 kts 187°
2026-05-04 15:27 24.17778 -85.49999 34081 ft 458 kts 187°
2026-05-04 15:28 24.08213 -85.50000 34076 ft 458 kts 187°
2026-05-04 15:29 23.98658 -85.50010 34052 ft 457 kts 187°
2026-05-04 15:30 23.76496 -85.51128 34078 ft 457 kts 189°
2026-05-04 15:31 23.66957 -85.51580 34047 ft 458 kts 189°
2026-05-04 15:32 23.51191 -85.52329 34069 ft 459 kts 189°
2026-05-04 15:34 23.35295 -85.53103 34038 ft 458 kts 189°
2026-05-04 15:34 23.25757 -85.53572 34060 ft 457 kts 189°
2026-05-04 15:35 23.16228 -85.54040 34059 ft 456 kts 189°
2026-05-04 15:36 23.06725 -85.54505 34064 ft 455 kts 189°
2026-05-04 15:36 23.00443 -85.54812 34060 ft 454 kts 188°
2026-05-04 15:37 22.94121 -85.55120 34056 ft 454 kts 188°
2026-05-04 15:37 22.87820 -85.55428 34062 ft 453 kts 188°
2026-05-04 15:38 22.81511 -85.55735 34063 ft 453 kts 188°
2026-05-04 15:38 22.75212 -85.56038 34063 ft 453 kts 188°
2026-05-04 15:39 22.68911 -85.56340 34056 ft 452 kts 188°
2026-05-04 15:40 22.59498 -85.56793 34059 ft 452 kts 188°
2026-05-04 15:40 22.53202 -85.57095 34059 ft 452 kts 188°
2026-05-04 15:41 22.46909 -85.57383 34061 ft 453 kts 188°
2026-05-04 15:41 22.40607 -85.57663 34060 ft 453 kts 188°
2026-05-04 15:42 22.34317 -85.57945 34054 ft 453 kts 188°
2026-05-04 15:42 22.28028 -85.58260 34056 ft 450 kts 192°
2026-05-04 15:42 22.24996 -85.58921 34063 ft 440 kts 204°
2026-05-04 15:43 22.22177 -85.60129 34057 ft 433 kts 212°
2026-05-04 15:43 22.17227 -85.63678 34059 ft 426 kts 221°
2026-05-04 15:44 22.12440 -85.67470 34058 ft 426 kts 221°
2026-05-04 15:44 22.07634 -85.71230 34057 ft 427 kts 221°
2026-05-04 15:45 22.02808 -85.74970 34051 ft 427 kts 220°
2026-05-04 15:45 21.97977 -85.78702 34056 ft 427 kts 220°
2026-05-04 15:46 21.93175 -85.82410 34057 ft 427 kts 220°
2026-05-04 15:46 21.88338 -85.86143 34057 ft 427 kts 220°
2026-05-04 15:47 21.83500 -85.89873 34054 ft 427 kts 220°
2026-05-04 15:47 21.78673 -85.93591 34054 ft 427 kts 220°
2026-05-04 15:48 21.73840 -85.97313 34037 ft 427 kts 220°
2026-05-04 15:48 21.66598 -86.02883 34064 ft 426 kts 220°
2026-05-04 15:49 21.61771 -86.06595 34065 ft 426 kts 220°
2026-05-04 15:49 21.56949 -86.10300 34065 ft 426 kts 220°
2026-05-04 15:50 21.52122 -86.14007 34063 ft 426 kts 220°
2026-05-04 15:50 21.47328 -86.17686 34052 ft 426 kts 220°
2026-05-04 15:51 21.42497 -86.21389 34060 ft 427 kts 220°
2026-05-04 15:51 21.37663 -86.25092 34050 ft 427 kts 220°
2026-05-04 15:52 21.32818 -86.28800 34051 ft 427 kts 220°
2026-05-04 15:52 21.27974 -86.32505 34058 ft 428 kts 220°
2026-05-04 15:53 21.23121 -86.36213 34053 ft 428 kts 220°
2026-05-04 15:53 21.18268 -86.39919 34057 ft 429 kts 220°
2026-05-04 15:54 21.13404 -86.43629 34049 ft 429 kts 220°
2026-05-04 15:54 21.08570 -86.47314 34041 ft 429 kts 219°
2026-05-04 15:55 21.03711 -86.51014 34048 ft 429 kts 219°
2026-05-04 15:55 20.98846 -86.54716 34052 ft 429 kts 219°
2026-05-04 15:56 20.93984 -86.58413 34038 ft 429 kts 220°
2026-05-04 15:56 20.89106 -86.62119 34049 ft 430 kts 220°
2026-05-04 15:57 20.84226 -86.65825 34048 ft 430 kts 220°
2026-05-04 15:57 20.79338 -86.69532 34047 ft 431 kts 220°
2026-05-04 15:58 20.74440 -86.73245 34039 ft 432 kts 219°
2026-05-04 15:58 20.69539 -86.76957 34044 ft 432 kts 219°
2026-05-04 15:59 20.64634 -86.80668 34040 ft 432 kts 219°
2026-05-04 15:59 20.59725 -86.84381 34038 ft 433 kts 219°
2026-05-04 16:00 20.55640 -86.87469 34035 ft 433 kts 219°
2026-05-04 16:00 20.49853 -86.91665 34027 ft 436 kts 212°
2026-05-04 16:01 20.45210 -86.93943 34040 ft 438 kts 208°
2026-05-04 16:01 20.39634 -86.96563 34034 ft 438 kts 208°
2026-05-04 16:02 20.34107 -86.99199 34045 ft 438 kts 208°
2026-05-04 16:03 20.25777 -87.03209 34046 ft 438 kts 208°
2026-05-04 16:03 20.20226 -87.05881 34047 ft 438 kts 208°
2026-05-04 16:04 20.14666 -87.08554 34047 ft 438 kts 208°
2026-05-04 16:04 20.06322 -87.12552 34045 ft 438 kts 208°
2026-05-04 16:05 20.00764 -87.15209 34040 ft 438 kts 208°
2026-05-04 16:06 19.92429 -87.19192 34045 ft 437 kts 208°
2026-05-04 16:07 19.81367 -87.24472 34037 ft 437 kts 208°
2026-05-04 16:08 19.70295 -87.29749 34040 ft 436 kts 209°
2026-05-04 16:09 19.56466 -87.36328 34044 ft 435 kts 208°
2026-05-04 16:10 19.45433 -87.41566 34039 ft 436 kts 208°
2026-05-04 16:11 19.34349 -87.46821 34031 ft 433 kts 208°
2026-05-04 16:12 19.26280 -87.50638 33119 ft 416 kts 208°
2026-05-04 16:12 19.18434 -87.54354 31958 ft 407 kts 208°
2026-05-04 16:13 19.13280 -87.56790 31168 ft 404 kts 208°
2026-05-04 16:13 19.08076 -87.59256 29936 ft 413 kts 207°
2026-05-04 16:14 19.02849 -87.61728 29037 ft 409 kts 207°
2026-05-04 16:14 18.97695 -87.64162 28219 ft 403 kts 207°
2026-05-04 16:15 18.90127 -87.67737 27047 ft 395 kts 207°
2026-05-04 16:16 18.85125 -87.70099 26275 ft 392 kts 206°
2026-05-04 16:16 18.77689 -87.73608 25084 ft 388 kts 206°
2026-05-04 16:17 18.72768 -87.75932 24300 ft 387 kts 205°
2026-05-04 16:18 18.65399 -87.79394 23063 ft 385 kts 205°
2026-05-04 16:18 18.62957 -87.80542 22676 ft 382 kts 205°
2026-05-04 16:19 18.55751 -87.83935 21535 ft 376 kts 205°
2026-05-04 16:19 18.50992 -87.86174 20787 ft 373 kts 204°
2026-05-04 16:20 18.43927 -87.89493 19655 ft 369 kts 204°
2026-05-04 16:20 18.39251 -87.91689 18890 ft 367 kts 204°
2026-05-04 16:21 18.32261 -87.94966 17510 ft 370 kts 204°
2026-05-04 16:22 18.27553 -87.97171 16640 ft 368 kts 204°
2026-05-04 16:22 18.20610 -88.00421 15546 ft 360 kts 204°
2026-05-04 16:23 18.13805 -88.03603 14481 ft 353 kts 204°
2026-05-04 16:24 18.04953 -88.07722 13056 ft 344 kts 203°
2026-05-04 16:25 18.00634 -88.09730 12353 ft 339 kts 203°
2026-05-04 16:26 17.92120 -88.13689 10990 ft 330 kts 203°
2026-05-04 16:26 17.85895 -88.16580 10199 ft 318 kts 202°
2026-05-04 16:27 17.81953 -88.18411 9947 ft 301 kts 202°
2026-05-04 16:28 17.76243 -88.21059 8882 ft 302 kts 202°
2026-05-04 16:28 17.70861 -88.24270 7954 ft 300 kts 234°
2026-05-04 16:29 17.67286 -88.31949 6857 ft 286 kts 245°
2026-05-04 16:30 17.64852 -88.37448 5954 ft 267 kts 244°
2026-05-04 16:31 17.63310 -88.40887 5432 ft 254 kts 244°
2026-05-04 16:31 17.61141 -88.45709 4802 ft 236 kts 244°
2026-05-04 16:32 17.59067 -88.50303 4473 ft 230 kts 244°
2026-05-04 16:33 17.57698 -88.53333 4264 ft 232 kts 244°
2026-05-04 16:33 17.55738 -88.55988 3812 ft 233 kts 202°
2026-05-04 16:34 17.52692 -88.55826 3424 ft 219 kts 160°
2026-05-04 16:34 17.51279 -88.55309 3167 ft 212 kts 158°
2026-05-04 16:35 17.49223 -88.51796 3000 ft 198 kts 86°
2026-05-04 16:35 17.50135 -88.47929 2999 ft 177 kts 77°
2026-05-04 16:36 17.50417 -88.46655 2874 ft 183 kts 77°
2026-05-04 16:36 17.50989 -88.44079 2396 ft 179 kts 77°
2026-05-04 16:37 17.51533 -88.41607 1970 ft 173 kts 77°
2026-05-04 16:37 17.51806 -88.40368 1719 ft 174 kts 76°
2026-05-04 16:37 17.52337 -88.37957 1271 ft 160 kts 77°
2026-05-04 16:38 17.52832 -88.35713 866 ft 161 kts 76°
2026-05-04 16:39 17.53551 -88.32433 209 ft 150 kts 76°
2026-05-04 16:39 17.53964 -88.30573 34 ft 82 kts 77°
2026-05-04 16:40 17.54050 -88.30133 34 ft 8 kts 91°
2026-05-04 16:40 17.54057 -88.30152 31 ft 8 kts 256°
2026-05-04 16:41 17.53995 -88.30430 34 ft 27 kts 257°
2026-05-04 16:41 17.53880 -88.30874 33 ft 11 kts 202°
2026-05-04 16:42 17.53728 -88.30844 35 ft 6 kts 163°
2026-05-04 16:43 17.53675 -88.30820 35 ft 1 kts 155°
2026-05-04 16:43 17.53671 -88.30818 35 ft 0 kts 155°